Location: La Brionne
(46.1728°N, 1.7849°E)
Time: 02:23:24
(UTC+00:00)

Cosmos 2219 Rocket - Pass Details

Date: 28 October 2021
Orbit: 827 x 848 km, 71.0° (Epoch: 26 November)

Event Time Altitude Azimuth Distance (km) Brightness Sun altitude
Rises 18:47:23 0° 203° (SSW) 3,354 5.6 -21.8°
Reaches altitude 10° 18:49:48 10° 203° (SSW) 2,426 4.8 -22.2°
Maximum altitude 18:55:22 88° 118° (ESE) 838 2.0 -23.2°
Enters shadow 18:58:49 25° 27° (NNE) 1,644 3.5 -23.8°
